contact:dominique.lefevre@mio.osupytheas.fr, maurice.libes@osupytheas.fr
Project:EMSO Ligure-ouest http://www.emso-fr.org/EMSO-France
Sensor Aquadopp, line 13 Serial AQD14315 
DOI : "https://doi.org/10.17882/74513; https://doi.org/10.17882/83244" 
Title:EMSO Ligure Ouest : Data ligne ALBATROSS capteur AQUADOPP - deploiement 2021
Id,Date,Profondeur,Latitude,Longitude,X_East,Y_North,Z_Up,Amplitude_X,Amplitude_Y,Amplitude_Z,Batterie,SoundSpeed,Heading,Pitch,Roll,Pressure,Temperature,Speed,Direction
, , m, degrees North, degrees East, m.s-1, m.s-1,m.s-1, 1, 1, 1, Volt, m.s-1, degree, degree, degree, dbar, degree_C, m.s-1, degree
09,2022-05-25T21:30:00,2000.0,42.79,6.0312,0.028,-0.056,0.003,72.0,64.0,68.0,11.7,1504.7,150.8,-0.9,1.3,1990.547,13.28,0.062,153.4
09,2022-05-25T22:00:00,2000.0,42.79,6.0312,0.015,-0.042,-0.013,69.0,64.0,68.0,11.7,1504.7,164.5,-1.1,1.1,1990.575,13.28,0.044,160.4
09,2022-05-25T22:30:00,2000.0,42.79,6.0312,0.043,-0.058,0.002,71.0,64.0,68.0,11.7,1504.7,148.8,-1.3,1.2,1990.482,13.28,0.072,143.4
09,2022-05-25T23:00:00,2000.0,42.79,6.0312,0.013,-0.053,-0.006,70.0,65.0,69.0,11.7,1504.7,163.5,-1.3,1.4,1990.51,13.28,0.054,166.2
09,2022-05-26T00:00:00,2000.0,42.79,6.0312,0.031,-0.066,-0.013,71.0,66.0,69.0,11.7,1504.7,154.1,-1.3,1.1,1990.507,13.28,0.072,154.8
09,2022-05-26T00:30:00,2000.0,42.79,6.0312,0.051,-0.049,-0.017,71.0,67.0,73.0,11.7,1504.7,133.7,-1.3,1.3,1990.538,13.28,0.07,133.9
09,2022-05-26T01:00:00,2000.0,42.79,6.0312,0.01,-0.062,-0.018,69.0,65.0,71.0,11.7,1504.7,164.9,-0.9,1.0,1990.604,13.28,0.062,170.8
09,2022-05-26T01:30:00,2000.0,42.79,6.0312,0.017,-0.062,-0.04,68.0,67.0,70.0,11.7,1504.7,149.9,-1.3,1.0,1990.548,13.28,0.064,164.7
09,2022-05-26T02:00:00,2000.0,42.79,6.0312,0.021,-0.058,-0.024,71.0,67.0,69.0,11.7,1504.7,141.6,-0.8,1.4,1990.637,13.28,0.061,160.1
09,2022-05-26T02:30:00,2000.0,42.79,6.0312,0.023,-0.056,-0.016,72.0,69.0,71.0,11.7,1504.7,139.7,-0.9,1.4,1990.622,13.28,0.06,157.7
09,2022-05-26T03:00:00,2000.0,42.79,6.0312,-0.004,-0.069,-0.001,72.0,66.0,71.0,11.7,1504.7,168.5,-1.5,1.1,1990.633,13.28,0.069,183.3
09,2022-05-26T03:30:00,2000.0,42.79,6.0312,0.03,-0.06,-0.005,73.0,70.0,70.0,11.7,1504.7,149.1,-1.2,1.3,1990.677,13.28,0.067,153.4
09,2022-05-26T04:00:00,2000.0,42.79,6.0312,0.017,-0.064,-0.015,73.0,68.0,71.0,11.7,1504.7,147.6,-0.9,1.3,1990.628,13.28,0.066,165.1
09,2022-05-26T04:30:00,2000.0,42.79,6.0312,0.001,-0.06,0.0,72.0,70.0,70.0,11.7,1504.7,148.9,-1.3,1.1,1990.668,13.28,0.06,179.0
09,2022-05-26T05:00:00,2000.0,42.79,6.0312,0.001,-0.054,0.007,71.0,68.0,71.0,11.7,1504.7,161.2,-1.4,1.0,1990.648,13.28,0.054,178.9
09,2022-05-26T05:30:00,2000.0,42.79,6.0312,0.016,-0.074,-0.026,73.0,70.0,71.0,11.7,1504.7,157.8,-1.6,1.2,1990.67,13.28,0.075,167.8
09,2022-05-26T06:00:00,2000.0,42.79,6.0312,0.021,-0.052,-0.04,75.0,69.0,72.0,11.7,1504.7,158.2,-1.6,1.2,1990.678,13.28,0.056,158.0
09,2022-05-26T06:30:00,2000.0,42.79,6.0312,-0.002,-0.075,-0.03,73.0,70.0,72.0,11.7,1504.7,156.9,-1.4,1.2,1990.668,13.28,0.075,181.5
09,2022-05-26T07:00:00,2000.0,42.79,6.0312,0.009,-0.074,-0.007,75.0,71.0,73.0,11.7,1504.7,165.3,-1.2,1.3,1990.626,13.28,0.074,173.1
09,2022-05-26T07:30:00,2000.0,42.79,6.0312,-0.023,-0.054,-0.014,77.0,72.0,74.0,11.7,1504.7,169.9,-1.3,1.3,1990.596,13.28,0.058,203.1
09,2022-05-26T08:00:00,2000.0,42.79,6.0312,-0.018,-0.06,0.002,76.0,72.0,76.0,11.7,1504.7,170.0,-1.4,1.1,1990.597,13.28,0.062,196.7
09,2022-05-26T08:30:00,2000.0,42.79,6.0312,-0.003,-0.073,-0.004,75.0,75.0,76.0,11.7,1504.7,169.7,-1.3,1.2,1990.563,13.28,0.073,182.4
09,2022-05-26T09:00:00,2000.0,42.79,6.0312,0.003,-0.055,0.006,78.0,76.0,76.0,11.7,1504.7,168.3,-1.1,1.3,1990.588,13.28,0.055,176.9
09,2022-05-26T09:30:00,2000.0,42.79,6.0312,-0.024,-0.049,-0.011,78.0,74.0,78.0,11.7,1504.7,161.7,-1.2,1.3,1990.497,13.28,0.054,206.1
09,2022-05-26T10:00:00,2000.0,42.79,6.0312,-0.015,-0.052,-0.019,79.0,74.0,78.0,11.7,1504.7,170.8,-1.3,1.1,1990.538,13.28,0.054,196.1
09,2022-05-26T10:30:00,2000.0,42.79,6.0312,0.017,-0.066,0.006,75.0,73.0,79.0,11.7,1504.7,170.3,-1.3,1.1,1990.48,13.28,0.068,165.6
09,2022-05-26T11:00:00,2000.0,42.79,6.0312,0.0,-0.05,0.023,79.0,73.0,79.0,11.7,1504.7,170.7,-1.3,1.2,1990.468,13.28,0.05,180.0
09,2022-05-26T11:30:00,2000.0,42.79,6.0312,0.04,-0.053,0.02,77.0,75.0,76.0,11.7,1504.7,165.7,-1.1,1.3,1990.479,13.28,0.066,143.0
09,2022-05-26T12:00:00,2000.0,42.79,6.0312,-0.002,-0.051,0.019,79.0,75.0,76.0,11.7,1504.7,169.2,-1.0,1.1,1990.451,13.28,0.051,182.2
09,2022-05-26T13:00:00,2000.0,42.79,6.0312,0.0,-0.053,-0.004,78.0,75.0,78.0,11.7,1504.7,166.9,-1.1,1.2,1990.463,13.28,0.053,180.0
09,2022-05-26T13:30:00,2000.0,42.79,6.0312,0.006,-0.032,-0.013,78.0,70.0,76.0,11.7,1504.7,163.4,-1.1,1.2,1990.473,13.28,0.032,169.4
09,2022-05-26T14:00:00,2000.0,42.79,6.0312,0.029,-0.048,0.012,76.0,73.0,79.0,11.7,1504.7,156.0,-1.3,1.2,1990.492,13.28,0.056,148.9
09,2022-05-26T14:30:00,2000.0,42.79,6.0312,0.026,-0.06,-0.013,76.0,71.0,76.0,11.7,1504.7,148.2,-1.2,1.1,1990.515,13.28,0.065,156.6
09,2022-05-26T15:00:00,2000.0,42.79,6.0312,0.026,-0.033,-0.021,77.0,74.0,75.0,11.7,1504.7,148.2,-1.2,1.1,1990.591,13.28,0.042,141.8
09,2022-05-26T15:30:00,2000.0,42.79,6.0312,0.007,-0.084,-0.026,74.0,72.0,74.0,11.7,1504.7,170.0,-1.3,1.1,1990.573,13.28,0.084,175.2
09,2022-05-26T16:00:00,2000.0,42.79,6.0312,0.012,-0.06,-0.032,76.0,72.0,76.0,11.7,1504.7,146.8,-0.8,1.4,1990.56,13.28,0.061,168.7
09,2022-05-26T16:30:00,2000.0,42.79,6.0312,0.008,-0.057,-0.014,74.0,72.0,74.0,11.7,1504.7,155.9,-1.4,1.1,1990.602,13.28,0.057,172.0
09,2022-05-26T17:00:00,2000.0,42.79,6.0312,-0.019,-0.057,0.007,73.0,71.0,75.0,11.7,1504.7,175.6,-1.2,1.1,1990.596,13.28,0.06,198.4
09,2022-05-26T17:30:00,2000.0,42.79,6.0312,0.008,-0.063,0.001,75.0,72.0,75.0,11.7,1504.7,153.2,-1.2,1.2,1990.611,13.28,0.063,172.8
09,2022-05-26T18:00:00,2000.0,42.79,6.0312,0.036,-0.055,-0.007,73.0,71.0,75.0,11.7,1504.7,147.9,-1.0,1.2,1990.628,13.28,0.065,146.8
09,2022-05-26T18:30:00,2000.0,42.79,6.0312,0.021,-0.073,-0.01,73.0,68.0,76.0,11.7,1504.7,151.5,-1.4,1.1,1990.601,13.29,0.075,164.0
09,2022-05-26T19:00:00,2000.0,42.79,6.0312,0.001,-0.073,-0.013,74.0,71.0,76.0,11.7,1504.7,155.0,-1.2,1.0,1990.543,13.29,0.073,179.2
09,2022-05-26T19:30:00,2000.0,42.79,6.0312,0.004,-0.077,0.013,77.0,72.0,74.0,11.7,1504.7,153.8,-0.9,1.2,1990.593,13.28,0.077,177.0
09,2022-05-26T20:00:00,2000.0,42.79,6.0312,-0.015,-0.055,-0.001,74.0,71.0,75.0,11.7,1504.7,166.4,-1.4,1.2,1990.564,13.28,0.057,195.3
09,2022-05-26T20:30:00,2000.0,42.79,6.0312,-0.007,-0.085,-0.004,75.0,71.0,74.0,11.7,1504.7,158.5,-1.2,1.1,1990.547,13.28,0.085,184.7
09,2022-05-26T21:00:00,2000.0,42.79,6.0312,0.0,-0.079,-0.028,75.0,71.0,77.0,11.7,1504.7,153.8,-0.5,1.1,1990.555,13.28,0.078,180.0
